Regional Weather Roundup
Issued by NWS Albany, NY

Home | Current Version | Previous Version | Text Only | Print | Product List | Glossary On
Versions: 1 2 3 4 5 6 7 8 9 10 11 12 13 14 15 16 17 18 19 20 21 22 23 24 25 26 27
000
ASUS41 KALY 312210
RWRALY

NEW YORK STATE HOURLY WEATHER ROUNDUP
NATIONAL WEATHER SERVICE ALBANY NY
600 PM EDT FRI OCT 31 2014

NOTE: "FAIR" INDICATES FEW OR NO CLOUDS BELOW 12,000 FEET WITH NO
SIGNIFICANT WEATHER AND/OR NO OBSTRUCTIONS TO VISIBILITY.

NYZ032-033-038>043-046>054-057>066-NYZ062>081-312300-
EAST


CITY           SKY/WX    TMP DP  RH WIND       PRES   REMARKS
ALBANY         MOCLDY    50  34  54 NE6       29.95S
GLENS FALLS    PTCLDY    46  32  58 NE5       29.97R
POUGHKEEPSIE   CLOUDY    52  37  56 NE6       29.91S
NEWBURGH       CLOUDY    50  37  62 NE8       29.92S
MONTGOMERY     CLOUDY    50  35  56 E5        29.91R
WHITE PLAINS   MOCLDY    52  37  56 NE7       29.90R
ISLIP          CLOUDY    54  43  66 NE10      29.88F
NEW YORK CITY  CLOUDY    54  42  64 NE9       29.90S
CENTRAL PARK   CLOUDY    54  40  59 VRB7      29.92S
$$

NYZ005>009-017-018-044>046-055-056-312300-
CENTRAL


CITY           SKY/WX    TMP DP  RH WIND       PRES   REMARKS
FULTON         CLOUDY    47  36  65 N8        29.95R
SYRACUSE       CLOUDY    48  33  56 NE7       29.94S
ROME           CLOUDY    48  33  56 CALM      29.95S
ELMIRA         CLOUDY    49  34  56 N5        29.89R
BINGHAMTON     CLOUDY    45  30  55 NE6       29.88S
MONTICELLO     CLEAR     43  30  61 E7        29.91R
$$

NYZ026>034-041>043-312300-
NORTH


CITY           SKY/WX    TMP DP  RH WIND       PRES   REMARKS
WATERTOWN      CLOUDY    46  32  58 NE9       29.98S
FORT DRUM      NOT AVBL
MASSENA        CLOUDY    42  27  55 NE9       30.05S
SARANAC LAKE   CLOUDY    39  31  72 NE9       29.95S WCI  33
PLATTSBURGH    MOCLDY    44  28  53 N13       30.03S
$$

NYZ001>004-010>016-019>021-312300-
WEST


CITY           SKY/WX    TMP DP  RH WIND       PRES   REMARKS
NIAGARA FALLS  LGT RAIN  45  39  79 E3        29.90R
BUFFALO        LGT RAIN  46  40  79 E5        29.90R
DUNKIRK        LGT RAIN  45  41  86 E5        29.90R
JAMESTOWN      CLOUDY    39  36  87 CALM      29.87S
WELLSVILLE     LGT RAIN  40  37  89 N3        29.89S
ROCHESTER      LGT RAIN  47  41  80 E7        29.94R
PENN YAN       LGT RAIN  47  34  60 E3        29.91R
$$

             KEY
       WCI = WIND CHILL INDEX
       VSB = VISIBILITY
       HX  = HEAT INDEX
$$



USA.gov is the U.S. government's official web portal to all federal, state and local government web resources and services.